Retour au catalogue

FENGYUN 1C DEB

ActifSSO
NORAD 31752·DEBRIS·🇨🇳 China

Lancé May 10, 1999 depuis Taiyuan Satellite Launch Center

Loading…

Prochains Passages (prochaines 24 heures)

TLE

FraisSource: Space-Track

Époque: Sep 11, 2026, 11:04 UTC

1 31752U 99025CFB 26254.46131401  .00001323  00000-0  61494-3 0  9998
2 31752  98.9583 324.8026 0350873 305.1154  51.7582 13.94582436973903

Suivez FENGYUN 1C DEB en temps réel avec AllMySat

Download on the App Store